Location: Sungai Bunut
(2.6333°N, 113.7333°E)
Time: 09:28:42
(UTC+00:00)

Transit 2A - Pass Details

Date: 12 December 2023
Orbit: 599 x 953 km, 66.7° (Epoch: 01 March)

Event Time Altitude Azimuth Distance (km) Brightness Sun altitude
Rises 16:29:10 0° 339° (NNW) 2,945 - -69.4°
Reaches altitude 10° 16:31:21 10° 338° (NNW) 2,078 - -69.3°
Maximum altitude 16:36:04 84° 251° (WSW) 718 - -69.1°
Drops below altitude 10° 16:41:18 10° 162° (SSE) 2,305 - -68.8°
Sets 16:43:50 0° 161° (SSE) 3,295 - -68.7°
